Tracking 30292 objects as of 28-Apr-2025
HD Live streaming from Space Station
objects crossing your sky now

COSMOS 1275 DEB

Track COSMOS 1275 DEB now!
10-day predictions


NORAD ID: 12759
Int'l Code: 1981-053DC
Perigee: 852.2 km
Apogee: 920.8 km
Inclination: 82.9 °
Period: 102.6 minutes
Semi major axis: 7257 km
RCS: 0.0125 m2 (small)
Launch date: June 4, 1981
Source: Commonwealth of Independent States (former USSR) (CIS)
Launch site: PLESETSK MISSILE AND SPACE COMPLEX (PKMTR)

Note: This is SATELLITE DEBRIS
Your satellite tracking list
Your tracking list is empty




NASA's NSSDC Master Catalog

Two Line Element Set (TLE):
1 12759U 81053DC  25118.23807950  .00001975  00000-0  12242-2 0  9997
2 12759  82.8647  21.0469 0047277  27.7408  96.6726 14.04170096224251
Source of the keplerian elements: AFSPC